Marshall, MI

9:47 PM EST on December 04, 2016 (GMT -0500)
Brooks

Weather History for KRMY - October, 2012

Change the Weather History Date:

Tuesday, October 2, 2012

  Actual Average (KBTL) Record (KBTL)
Temperature  
Mean Temperature 59 °F 55 °F  
Max Temperature 67 °F 66 °F 81 °F (2005)
Min Temperature 51 °F 43 °F 28 °F (2003)
Degree Days  
Heating Degree Days 6 11  
Month to date heating degree days 21  
Since 1 July heating degree days 218  
Cooling Degree Days 0 1  
Month to date cooling degree days 2  
Year to date cooling degree days 575  
Growing Degree Days 9 (Base 50)    
Moisture  
Dew Point 49 °F    
Average Humidity 70    
Maximum Humidity 90    
Minimum Humidity 48    
Precipitation  
Precipitation 0.00 in 0.11 in 1.55 in (2014)
Month to date precipitation 0.22  
Year to date precipitation 25.41  
Sea Level Pressure  
Sea Level Pressure 29.86 in    
Wind  
Wind Speed 2 mph (ENE)    
Max Wind Speed 12 mph    
Max Gust Speed 9 mph    
Visibility 10 miles    
Events Rain    
T = Trace of Precipitation, MM = Missing Value Source: NWS Daily Summary

Daily Weather History Graph

Daily Weather History Graph

Search for Another Location

Airport or City:

Trip Planner

Search our weather history database for the weather conditions in past years. The results will help you decide how hot, cold, wet, or windy it might be!

Date:

Astronomy

Oct. 02, 2012 Rise Set
Actual Time 7:38 AM EDT 7:18 PM EDT
Civil Twilight 7:10 AM EDT 7:46 PM EDT
Nautical Twilight 6:38 AM EDT 8:19 PM EDT
Astronomical Twilight 6:05 AM EDT 8:51 PM EDT
Moon 8:27 PM EDT (10/2) 10:08 AM EDT (10/2)
Length of Visible Light 12h 36m
Length of Day
11h 40m
Waning Gibbous, 94% of the Moon is Illuminated
Oct 2
Waning Gibbous
Oct 8
Last Quarter
Oct 15
New
Oct 21
First Quarter
Oct 29
Full

Hourly Weather History & Observations

Time (EDT) Temp. Dew Point Humidity Pressure Visibility Wind Dir Wind Speed Gust Speed Precip Events Conditions
12:13 AM 55.0 °F 46.9 °F 74% 29.84 in 10.0 mi Calm Calm - N/A   Scattered Clouds
12:34 AM 55.0 °F 46.6 °F 73% 29.83 in 10.0 mi Calm Calm - N/A   Scattered Clouds
12:54 AM 54.7 °F 46.9 °F 75% 29.81 in 10.0 mi Calm Calm - N/A   Scattered Clouds
1:13 AM 54.9 °F 46.6 °F 74% 29.81 in 10.0 mi Calm Calm - N/A   Mostly Cloudy
1:34 AM 54.5 °F 46.6 °F 75% 29.81 in 10.0 mi NE 3.5 mph - N/A   Overcast
1:54 AM 54.5 °F 46.8 °F 75% 29.82 in 10.0 mi Calm Calm - N/A   Overcast
2:13 AM 53.6 °F 46.9 °F 78% 29.83 in 10.0 mi Calm Calm - N/A   Overcast
2:34 AM 53.8 °F 46.9 °F 78% 29.82 in 10.0 mi Calm Calm - N/A   Overcast
3:13 AM 53.8 °F 46.8 °F 77% 29.82 in 10.0 mi Calm Calm - N/A   Overcast
3:34 AM 53.8 °F 46.6 °F 77% 29.81 in 10.0 mi Calm Calm - N/A   Overcast
3:54 AM 53.4 °F 46.9 °F 79% 29.81 in 10.0 mi Calm Calm - N/A   Overcast
4:13 AM 53.2 °F 46.9 °F 79% 29.82 in 10.0 mi Calm Calm - N/A   Overcast
4:34 AM 53.1 °F 46.9 °F 80% 29.82 in 10.0 mi Calm Calm - N/A   Overcast
5:13 AM 53.4 °F 46.9 °F 79% 29.83 in 10.0 mi Calm Calm - N/A   Overcast
5:34 AM 53.4 °F 47.1 °F 79% 29.83 in 10.0 mi Calm Calm - N/A Rain Light Rain
5:54 AM 53.1 °F 47.5 °F 81% 29.84 in 10.0 mi Calm Calm - N/A Rain Light Rain
6:13 AM 52.5 °F 47.7 °F 84% 29.84 in 10.0 mi Calm Calm - N/A Rain Light Rain
6:34 AM 52.0 °F 47.8 °F 86% 29.85 in 10.0 mi Calm Calm - N/A Rain Light Rain
6:53 AM 51.4 °F 48.4 °F 89% 29.85 in 10.0 mi Calm Calm - N/A Rain Light Rain
7:13 AM 51.4 °F 48.6 °F 90% 29.85 in 10.0 mi Calm Calm - N/A Rain Light Rain
7:34 AM 51.4 °F 48.4 °F 89% 29.85 in 10.0 mi NNE 3.5 mph - N/A Rain Light Rain
7:53 AM 51.4 °F 48.4 °F 89% 29.85 in 10.0 mi NNE 3.5 mph - N/A   Scattered Clouds
8:13 AM 52.0 °F 48.7 °F 89% 29.85 in 10.0 mi Calm Calm - N/A   Mostly Cloudy
8:34 AM 53.4 °F 50.0 °F 88% 29.86 in 10.0 mi ENE 3.5 mph - N/A   Overcast
8:53 AM 53.6 °F 49.8 °F 87% 29.87 in 10.0 mi ENE 3.5 mph - N/A   Overcast
9:14 AM 54.9 °F 50.4 °F 85% 29.87 in 10.0 mi Calm Calm - N/A   Overcast
9:34 AM 56.3 °F 51.1 °F 83% 29.88 in 10.0 mi ENE 4.6 mph - N/A   Mostly Cloudy
9:53 AM 57.4 °F 51.6 °F 81% 29.87 in 10.0 mi ENE 4.6 mph - N/A   Mostly Cloudy
10:14 AM 57.6 °F 51.4 °F 80% 29.88 in 10.0 mi NE 4.6 mph - N/A   Mostly Cloudy
10:34 AM 58.3 °F 52.0 °F 80% 29.87 in 10.0 mi NE 4.6 mph - N/A   Mostly Cloudy
10:53 AM 59.2 °F 51.6 °F 76% 29.87 in 7.0 mi NE 6.9 mph - N/A   Scattered Clouds
11:14 AM 60.4 °F 51.6 °F 73% 29.88 in 7.0 mi NNE 5.8 mph - N/A   Scattered Clouds
11:33 AM 61.3 °F 50.9 °F 69% 29.88 in 10.0 mi NE 8.1 mph - N/A   Scattered Clouds
11:54 AM 63.1 °F 50.0 °F 62% 29.87 in 10.0 mi NNE 4.6 mph 9.2 mph N/A   Scattered Clouds
12:14 PM 63.3 °F 47.5 °F 56% 29.86 in 10.0 mi NE 5.8 mph - N/A   Scattered Clouds
12:33 PM 62.6 °F 47.5 °F 58% 29.86 in 10.0 mi NE 6.9 mph - N/A   Scattered Clouds
12:53 PM 63.5 °F 48.4 °F 58% 29.86 in 10.0 mi ENE 8.1 mph - N/A   Mostly Cloudy
1:13 PM 64.4 °F 47.8 °F 55% 29.86 in 10.0 mi NNE 6.9 mph - N/A   Scattered Clouds
1:34 PM 67.8 °F 47.5 °F 48% 29.86 in 10.0 mi East 11.5 mph - N/A   Scattered Clouds
1:54 PM 65.7 °F 48.2 °F 53% 29.85 in 10.0 mi East 5.8 mph - N/A   Scattered Clouds
2:13 PM 66.9 °F 48.9 °F 52% 29.85 in 10.0 mi ENE 8.1 mph - N/A   Mostly Cloudy
2:34 PM 66.9 °F 48.7 °F 52% 29.85 in 10.0 mi NE 5.8 mph - N/A   Mostly Cloudy
2:54 PM 67.1 °F 49.6 °F 53% 29.84 in 10.0 mi NNE 3.5 mph - N/A   Overcast
3:13 PM 66.9 °F 49.5 °F 53% 29.84 in 10.0 mi East 6.9 mph - N/A   Overcast
3:34 PM 67.1 °F 49.6 °F 53% 29.84 in 10.0 mi NE 4.6 mph - N/A   Overcast
3:53 PM 66.9 °F 49.6 °F 54% 29.84 in 10.0 mi East 6.9 mph - N/A   Overcast
4:13 PM 67.8 °F 49.8 °F 52% 29.84 in 10.0 mi ENE 8.1 mph - N/A   Mostly Cloudy
4:34 PM 67.1 °F 50.2 °F 55% 29.85 in 10.0 mi East 8.1 mph - N/A   Overcast
4:53 PM 66.9 °F 49.8 °F 54% 29.84 in 10.0 mi East 5.8 mph - N/A   Overcast
5:14 PM 66.9 °F 49.1 °F 53% 29.84 in 10.0 mi NE 6.9 mph - N/A   Overcast
5:34 PM 66.7 °F 48.9 °F 53% 29.84 in 10.0 mi ENE 5.8 mph - N/A   Overcast
5:53 PM 66.7 °F 48.7 °F 52% 29.84 in 10.0 mi ENE 4.6 mph - N/A   Overcast
6:14 PM 66.6 °F 49.3 °F 54% 29.85 in 10.0 mi ENE 3.5 mph - N/A   Overcast
6:34 PM 66.0 °F 49.6 °F 55% 29.86 in 10.0 mi Calm Calm - N/A   Overcast
6:53 PM 65.7 °F 50.0 °F 57% 29.86 in 10.0 mi East 4.6 mph - N/A   Overcast
7:14 PM 64.6 °F 50.9 °F 61% 29.87 in 10.0 mi ESE 5.8 mph - N/A   Overcast
7:34 PM 64.2 °F 51.1 °F 62% 29.88 in 10.0 mi Calm Calm - N/A   Overcast
8:14 PM 63.0 °F 51.6 °F 66% 29.88 in 10.0 mi Calm Calm - N/A   Overcast
8:33 PM 63.1 °F 51.4 °F 66% 29.89 in 10.0 mi Calm Calm - N/A   Overcast
8:53 PM 63.1 °F 51.4 °F 66% 29.89 in 10.0 mi Calm Calm - N/A   Overcast
9:14 PM 62.6 °F 51.6 °F 67% 29.90 in 10.0 mi Calm Calm - N/A   Overcast
9:33 PM 62.1 °F 52.7 °F 71% 29.90 in 10.0 mi Calm Calm - N/A   Overcast
10:14 PM 62.1 °F 52.5 °F 71% 29.91 in 10.0 mi Calm Calm - N/A   Overcast
10:33 PM 61.2 °F 53.4 °F 76% 29.91 in 10.0 mi ESE 3.5 mph - N/A   Overcast
10:54 PM 61.5 °F 53.8 °F 76% 29.91 in 10.0 mi East 4.6 mph - N/A   Overcast
11:14 PM 60.3 °F 54.9 °F 82% 29.91 in 10.0 mi Calm Calm - N/A Rain Rain
11:33 PM 59.0 °F 55.2 °F 87% 29.91 in 10.0 mi NE 4.6 mph - N/A Rain Rain
11:54 PM 58.6 °F 55.4 °F 89% 29.90 in 7.0 mi ENE 5.8 mph - N/A Rain Rain